Location: Young's Pond
(41.2695°N, 72.7766°W)
Time: 14:19:25
(UTC-04:00)

Spot 4 - Visible Passes

Search period start: 21 May 2018 00:00
Search period end: 31 May 2018 00:00
Orbit: 705 x 723 km, 98.3° (Epoch: 21 May)

Date Brightness Start Highest point End Pass type
(mag) Time Alt. Az. Time Alt. Az. Time Alt. Az.
21 May 6.3 01:04:26 11° W 01:04:26 11° W 01:05:25 10° WNW visible
21 May 5.3 22:33:02 22° E 22:33:58 24° ENE 22:37:47 10° NNE visible
22 May 4.8 00:12:09 37° W 00:12:09 37° W 00:16:12 10° NNW visible
22 May 3.9 23:19:53 64° E 23:20:02 65° ENE 23:24:50 10° N visible
23 May 6.2 00:59:00 13° W 00:59:00 13° W 01:00:45 10° WNW visible
23 May 5.4 22:27:36 20° E 22:28:46 21° ENE 22:32:22 10° NNE visible
24 May 4.6 00:06:44 42° W 00:06:44 42° W 00:11:02 10° NNW visible
24 May 4.0 23:14:28 56° E 23:14:48 57° ENE 23:19:33 10° N visible
25 May 6.0 00:53:35 15° W 00:53:35 15° W 00:55:55 10° NW visible
25 May 5.6 22:22:11 17° E 22:23:34 19° ENE 22:26:57 10° NNE visible
26 May 4.4 00:01:19 49° W 00:01:19 49° W 00:05:51 10° NNW visible
26 May 4.2 23:09:03 48° E 23:09:34 51° ENE 23:14:16 10° N visible
27 May 5.9 00:48:10 17° W 00:48:10 17° W 00:50:59 10° NW visible
27 May 5.7 22:16:47 15° E 22:18:23 17° ENE 22:21:30 10° NNE visible
27 May 4.2 23:55:55 56° W 23:55:55 56° W 00:00:40 10° NNW visible
28 May 4.4 23:03:38 42° E 23:04:21 45° ENE 23:08:58 10° N visible
29 May 5.7 00:42:46 19° W 00:42:46 19° W 00:46:00 10° NW visible
29 May 5.8 22:11:23 13° E 22:13:12 15° ENE 22:16:00 10° NNE visible
29 May 4.0 23:50:30 63° WSW 23:50:37 63° WSW 23:55:27 10° NNW visible
30 May 4.6 22:58:14 36° E 22:59:08 40° ENE 23:03:39 10° N visible
